Location: Cluj-Napoca
(46.7712°N, 23.6236°E)
Time: 03:12:37
(UTC+02:00)

ISS - Pass Details

Date: 22 January 2020
Orbit: 415 x 423 km, 51.6° (Epoch: 28 February)

Event Time Altitude Azimuth Distance (km) Brightness Sun altitude
Rises 19:17:56 0° 236° (SW) 2,372 1.1 -21.1°
Reaches altitude 10° 19:20:02 10° 234° (SW) 1,508 -0.1 -21.5°
Enters shadow 19:22:46 53° 213° (SSW) 528 -3.1 -21.9°
